Reflectivity
-20 -20 -20 -18 -7 -19 3 -18 -20 -20 -16 -20 -20 -20 -9 -9 13 -20 -20 31 -20 -20 -20 -20 -20 -20 -20 -20 -20 -20 -18 -20 -20 -20 -20 -20 -20 -20 -20 -20 -20 -20 -20 -20 -20 -4 -20 -20 -20
-20 24 6 18 18 18 -5 -20 -20 -20 -20 -20 -20 -14 28 4 -20 -20 -13 -20 -20 -20 -20 -20 -20 -20 -20 -20 -0 -15 -20 -20 -20 -20 -20 -20 -20 -20 -20 -20 -20 -20 -20 -20 -20 -3 -20 -20 -20
33 23 35 36 17 -2 -11 -20 -20 -11 -20 -20 -20 -19 -5 -20 -20 -20 -20 -20 -20 -20 -20 -20 -20 -20 -20 -20 -20 -20 -20 -20 -20 -20 -20 -20 -20 -20 -20 -20 -20 -20 -20 -20 -0 -20 -20 -20 -20
-20 -19 29 7 30 10 -20 -20 -20 9 -14 -20 -20 -12 -14 7 -20 -20 -20 -20 -20 -20 -20 -19 -20 -20 -20 -20 -3 -20 -20 -20 -20 -20 -20 -20 -20 -20 -20 -20 -20 -20 -20 -4 -20 -20 -20 -20 -20
20 0 39 8 31 1 -6 5 12 -20 33 -16 13 13 4 13 -9 -20 -20 -20 -20 -20 -20 -20 -20 -20 -20 -8 -20 -20 -20 -20 -20 -20 -20 -20 -20 -20 -20 -20 -20 -20 -20 -20 -20 -20 -20 -20 -20
-20 11 8 3 -7 -19 -15 -10 -20 -20 -17 -16 -1 -20 -20 -20 -20 -20 -20 -20 -20 -20 -20 -20 -20 -20 -20 -18 -20 -20 -20 -4 -20 -20 -14 -20 -20 -20 -20 -20 -20 -17 -20 -20 -20 -20 -20 -20 -20
-20 15 5 5 -20 -17 0 33 -20 -20 -20 6 -18 -20 -20 -20 -20 -20 -20 -20 -20 -20 -20 -20 -13 -20 -20 -20 -20 -20 -20 -20 -20 -19 -20 -20 -20 -20 -20 -20 -20 -20 -20 -20 -20 -20 -20 -20 -20
16 -20 -10 27 -18 -7 -18 -20 -18 7 -20 -20 30 0 -13 -20 -20 -20 -20 -20 -20 -20 -20 -20 -20 -20 -20 -20 -16 -16 -20 -20 1 -20 -20 -20 -20 -20 -20 -20 -20 -20 -20 -20 -20 -20 -20 -20 -13
-10 -20 -20 -20 18 -10 -17 -20 -20 -1 -20 -20 1 16 9 -20 -20 -20 -20 -20 -20 -20 -20 -20 -20 -20 -20 -20 -16 -20 -20 -20 -20 -20 -20 -20 -20 -20 -20 -20 -20 -20 -20 -20 -20 -20 -20 -20 -20
-20 -20 -15 -18 -20 -20 -18 23 30 -20 -18 -20 -6 20 -4 -20 -20 -20 -20 -20 -20 -20 -20 -20 -20 -20 -18 -5 -20 -20 -20 -20 -20 -20 -20 -20 -20 -20 -20 -20 -20 -20 -20 -20 -19 18 -13 27 -12
-20 -20 -20 -20 -20 -20 -3 -19 -16 -18 10 -20 -12 -20 -20 -20 -20 -20 -20 -20 -20 -20 -20 -6 -20 -20 -20 -20 -20 -20 -20 -20 -20 -20 -20 -20 -20 -20 -20 -20 -20 -20 -20 -20 -20 -20 32 12 5
-20 -20 -20 -20 -20 -18 25 -20 -20 13 20 5 3 -15 -20 -20 -20 -20 -20 -20 -20 -20 -20 -20 -7 -20 -20 -20 -20 -20 -20 -20 -20 -20 -20 -20 -20 -20 -20 -20 -20 -20 -15 -20 1 17 26 45 31
-20 -20 -20 -20 -20 -20 -20 -20 -20 -16 -2 -20 -12 -20 -20 -20 -20 -20 -20 -20 -20 -20 -20 -20 -20 -20 -20 -12 -20 -20 -20 -20 -20 -20 -20 -20 -20 -20 -20 -20 -20 -20 -20 29 21 24 30 -19 -20
-20 -20 -20 -20 -20 -20 -20 -20 -20 -20 -20 -20 -20 -20 -20 -20 -8 -20 -20 -20 -20 -20 -20 -20 -20 -20 -20 -20 -20 -20 -20 -20 -20 -20 -20 -20 -20 -20 -20 -20 -20 -19 -11 29 14 36 33 3 12
-20 -20 -20 -20 -20 -20 -20 -20 -20 -20 -20 -20 -7 -19 -20 -20 -20 -20 -20 -20 -20 -20 -20 -20 -20 -20 -20 -20 -20 -20 -20 -20 -20 -20 -20 -20 -20 -20 -20 -20 -20 -20 30 30 -11 13 20 10 -20
-20 -20 -20 -20 -20 -20 -20 -20 -20 -20 -20 -20 37 35 -1 -20 -20 -20 -20 -20 -20 -20 -20 -20 -20 -20 -20 -20 -20 -20 -20 -20 -20 -20 -20 -20 -20 -20 -20 -20 -20 -20 18 -18 -13 -13 -15 -8 -4
-20 -20 -20 -5 -20 -20 -20 -20 -20 -20 -20 -20 -2 24 -17 -20 -20 -20 -20 -20 -20 -20 -20 -20 -20 -20 -20 -20 -20 -20 -20 -20 -20 -20 -20 -20 -20 -20 -20 -20 -20 -20 -20 -20 -16 8 -20 -20 -18
-20 -20 -20 -20 -20 -20 -20 -20 -20 -20 -20 -20 -20 -20 -20 -20 -20 -20 -20 -20 -20 -20 -20 -20 -20 -20 -20 -20 -20 -20 -20 -20 -19 -20 -20 -20 -20 -20 -20 -20 -20 -20 -7 -20 -20 -20 -20 -20 28
-20 -20 -20 -20 -20 -20 -20 -20 -20 -20 -20 -20 -20 -20 -20 -20 -20 -20 -20 -20 -20 -20 -20 -20 -20 -20 -20 -20 -20 -20 -20 -20 -20 -20 -20 -20 -20 -20 -20 -20 9 33 -20 -14 -20 -20 -20 -20 -20
-20 -20 -20 -20 -20 -20 -20 -20 -20 -20 -20 -20 -20 -20 -20 -20 -20 -20 -6 -20 -20 -20 -20 -20 -20 -20 -20 -20 -20 -20 -20 -20 -20 -20 -20 -20 -20 -20 -20 -20 -20 -20 -20 -20 -20 -20 -20 -20 -20
-20 -20 -20 -20 -20 -20 -20 -20 -20 -20 -20 -20 -20 -20 -20 -20 -20 -20 -20 -20 -20 -20 -20 -20 -20 -20 -20 -20 -20 -20 -20 -20 -20 -20 -20 -20 -20 -20 -20 -20 -20 -20 -20 -20 -12 -20 -20 -18 11
-20 -20 -20 -20 -20 -20 -20 -20 -20 -20 -20 -20 -20 -20 -20 -20 -20 -20 -20 -20 -20 -20 -20 -20 -20 -20 -20 -20 -20 -20 -20 -20 -20 -20 -20 -20 -20 -20 -20 -20 -20 -12 -20 -20 -20 -20 -20 -20 -20
-20 -20 -20 -20 -20 -20 -20 -20 -20 -20 -20 -20 -20 -20 -20 -20 -20 -20 -20 -20 -20 -20 -20 -20 -20 -20 -20 -20 -20 -20 -20 -20 -20 -20 -20 -20 -20 -20 -20 -20 -20 -20 -20 -20 -20 -20 -20 -20 -20
-20 -20 -20 -20 -20 -20 -20 -20 -20 -20 -20 -20 -20 -20 -20 -20 -20 -20 -20 -20 -20 -20 -20 -20 -20 -20 -20 -20 -20 -20 -20 -20 -20 -20 -20 -20 -20 -20 -20 -20 -20 -20 -20 -20 -20 -20 -20 -20 -20
-20 -20 -20 -20 -20 -20 -20 -20 -20 -20 -20 -20 -20 -20 -20 -20 -20 -20 -20 -20 -20 -20 -20 -20 -20 -20 -20 -20 -20 -20 -20 -20 -20 -20 -20 -20 -20 -20 -20 -20 -20 -20 -20 -20 -12 -20 -20 -20 -20
-20 -20 -20 -20 -20 -20 -20 -7 12 13 -16 -20 -20 -20 -20 -20 -20 -20 -20 -20 -20 -20 -20 -20 -20 -20 -20 -20 -20 -20 -20 -20 -20 -20 -20 -16 -20 -20 -20 -20 -20 -20 -20 -20 -20 -20 -20 -20 -20
-20 -20 -20 -20 -20 -20 -20 -20 -8 4 -8 -20 -20 -20 -20 -20 -20 -20 -20 -20 -20 -20 -20 -20 -20 -20 -20 -20 -20 -20 -20 -20 -20 -20 -20 -20 -20 -20 -13 -19 -20 22 -20 -20 -20 -20 -20 -20 -20
-20 -20 -20 -20 -20 -20 -11 5 -9 19 24 5 -20 -20 -20 -20 -20 -20 -20 -20 -20 -20 -20 -20 -20 -20 -20 -20 -20 -20 -20 -20 -20 -20 -20 -20 -20 -20 -20 -9 -17 29 -4 -20 -20 -20 -20 -20 -20
-16 -20 -17 -20 -20 -20 -20 -18 -3 -20 -20 -20 -20 -20 -20 -20 -20 -20 -20 -20 -20 -20 -20 -20 -20 -20 -20 -20 -20 -20 -20 -20 -20 -20 -20 -20 -20 -20 -20 -20 -20 -20 -20 -20 2 -14 -20 -20 -20
3 12 25 19 -20 -20 -20 -20 -20 -20 6 -7 -20 -16 -20 4 -20 -20 -20 -20 -20 -20 -20 -20 -20 -20 -20 -20 -20 -20 -20 -20 -20 -20 -20 -20 -20 -20 -20 -20 -20 -20 -20 -20 -20 -20 -20 -20 -20
Wind_Speed
1 4 2 6 5 4 4 7 7 8 15 12 14 10 5 5 5 3 12 20 22 15 13 14 18 17 16 15 16 16 15 14 13 12 11 11 10 9 9 8 7 5 6 5 5 7 7 7 6
3 1 9 6 4 4 4 11 10 6 15 22 23 26 6 10 13 17 17 21 20 16 13 12 17 18 17 16 16 16 15 13 13 12 10 10 9 8 8 7 5 4 4 5 6 8 7 7 7
4 13 8 3 4 3 2 9 9 9 13 18 11 17 4 13 19 12 22 23 20 15 13 13 17 17 17 16 15 14 15 13 12 12 11 10 9 8 7 6 4 4 5 5 7 7 6 6 6
5 6 5 3 6 10 2 10 8 12 16 14 8 6 6 21 14 16 27 25 18 15 14 15 17 17 15 16 13 14 14 13 12 11 11 10 9 8 6 5 4 5 6 6 6 6 5 5 6
7 6 1 3 4 13 10 11 4 18 14 17 21 0 5 8 18 25 25 22 21 17 14 12 16 15 14 14 14 14 14 14 13 11 10 10 9 8 7 6 6 7 6 6 6 5 4 4 3
6 3 3 5 7 8 1 9 15 13 8 10 3 7 1 19 19 17 18 21 20 19 14 12 15 15 14 14 15 14 14 13 13 11 12 10 9 7 7 6 7 7 7 7 4 3 3 2 2
9 8 4 7 11 6 13 4 7 13 9 9 11 5 1 14 13 19 20 19 16 17 13 11 10 12 14 13 13 13 13 12 12 12 11 10 9 9 9 8 7 8 8 6 5 3 3 3 3
6 4 8 8 12 4 10 13 23 17 9 11 1 6 5 18 20 19 20 17 16 14 11 10 8 6 6 6 13 13 12 11 12 12 12 11 10 10 9 8 8 8 7 6 6 4 5 6 4
8 5 5 6 15 4 5 10 6 10 9 3 3 3 7 19 19 19 16 14 11 10 12 10 9 8 7 6 8 11 12 11 11 11 11 8 3 5 8 9 11 9 8 8 6 6 5 5 8
5 3 5 5 2 4 21 23 14 4 11 6 5 5 11 23 20 20 17 12 10 9 7 9 9 8 7 7 6 6 6 4 5 5 5 3 5 5 8 10 12 11 10 9 8 7 7 3 2
3 4 5 9 4 8 13 20 4 15 4 5 11 12 18 24 19 17 16 17 11 8 5 12 11 9 7 5 4 3 3 3 4 6 6 5 4 4 5 3 4 3 8 4 6 5 3 9 7
2 5 3 5 4 6 8 16 6 18 10 11 16 18 18 23 21 20 17 17 13 7 7 7 11 9 7 5 6 6 4 4 3 5 7 4 3 3 3 3 5 4 1 1 3 6 6 6 8
4 3 4 7 6 5 19 14 9 7 17 12 10 19 21 15 20 18 18 19 17 13 9 9 8 7 6 8 4 4 4 4 4 4 5 4 4 3 5 5 4 3 5 4 6 4 4 3 8
5 5 7 9 4 5 6 9 8 12 8 11 10 16 19 19 20 12 17 18 17 14 11 10 9 7 6 6 5 4 4 5 4 4 4 5 2 2 4 1 2 5 2 4 7 10 6 8 3
8 6 9 9 4 1 2 0 2 9 12 13 11 12 21 21 19 17 15 16 14 15 13 13 11 7 7 7 6 4 4 4 4 4 5 5 3 3 3 1 3 4 3 7 8 8 8 9 7
12 6 6 6 7 6 3 8 10 15 19 11 24 30 15 19 25 16 15 14 15 15 13 11 12 11 8 8 6 4 4 4 4 4 4 5 3 2 4 3 3 4 3 4 10 8 5 5 3
8 9 2 4 8 4 6 2 11 18 19 22 23 25 15 19 20 18 17 15 13 10 12 9 9 13 9 7 6 5 5 3 3 3 4 5 3 4 3 2 4 2 4 3 2 3 4 4 3
9 3 0 3 6 7 2 2 8 4 9 22 22 15 18 21 20 19 21 18 17 10 12 10 8 13 10 6 5 3 4 3 3 5 5 7 4 6 1 3 4 4 2 4 0 5 0 4 5
13 5 6 7 8 5 3 4 11 10 4 11 15 15 16 18 19 19 19 18 19 14 14 13 9 13 10 5 4 3 3 3 2 3 6 7 5 6 2 3 4 2 3 2 2 2 5 4 4
11 5 9 8 7 3 6 8 10 9 9 11 14 17 17 18 19 20 20 18 21 18 15 14 13 12 10 9 5 4 3 2 2 3 4 7 6 5 3 3 2 2 2 3 2 3 3 2 2
9 5 6 9 5 7 8 10 12 12 10 8 11 20 19 22 22 19 18 22 20 18 17 13 14 13 10 9 5 2 1 2 2 2 3 5 6 5 3 2 1 2 3 2 2 3 2 2 3
6 10 8 8 6 4 2 12 11 11 6 11 15 11 20 21 20 20 17 22 22 20 17 16 14 14 12 10 7 6 5 4 3 4 3 5 7 7 6 4 2 2 3 1 2 4 3 4 4
6 8 7 6 8 6 8 2 12 8 8 8 10 12 15 22 25 23 21 18 23 21 18 15 14 14 12 12 10 7 6 5 4 4 6 6 6 7 7 5 5 3 3 2 5 2 1 2 2
5 5 8 6 0 4 16 7 14 6 8 8 8 9 10 22 24 23 20 17 17 18 17 15 15 14 13 12 12 11 9 7 5 4 6 4 3 4 6 6 5 5 4 3 4 4 3 1 2
6 3 5 6 3 8 11 1 10 9 11 11 11 11 10 22 23 22 21 18 16 21 19 16 17 15 13 14 12 11 12 11 8 7 5 5 3 3 6 5 4 4 4 4 5 5 4 4 1
6 7 6 4 4 8 8 2 6 8 9 8 9 10 10 21 24 25 23 20 17 22 21 20 20 17 16 15 14 12 11 8 7 6 4 5 5 5 5 6 6 7 7 5 5 3 4 4 4
5 4 10 3 7 4 4 7 8 10 4 4 2 3 10 17 25 25 23 21 18 20 22 21 21 19 18 16 12 12 12 11 7 8 6 6 5 4 6 9 6 4 6 6 5 4 4 4 4
7 6 6 4 2 6 3 4 5 4 8 11 10 13 8 10 24 22 21 21 18 20 20 19 21 21 19 17 14 11 13 11 10 7 10 8 7 6 6 7 6 11 7 7 6 4 4 5 4
2 5 5 2 4 3 4 5 2 6 8 16 17 18 7 11 19 21 18 19 19 17 18 18 19 20 18 17 15 15 13 13 11 7 9 9 7 7 8 8 8 8 7 6 7 7 6 4 4
6 7 6 6 10 4 4 7 5 9 10 5 8 12 11 6 15 19 17 19 18 17 17 17 17 18 18 17 16 15 13 13 13 12 9 8 8 6 7 7 10 8 7 7 8 7 6 5 4
Wind_Direction
235 206 269 36 40 36 270 75 68 51 77 72 76 70 75 118 159 187 132 124 129 137 138 133 130 124 122 126 138 130 132 135 132 131 127 119 116 113 110 109 101 89 90 105 124 115 113 111 103
332 21 33 24 19 314 303 80 67 27 102 103 73 54 25 88 101 119 115 133 130 136 134 136 131 128 127 125 134 135 135 138 137 144 142 136 135 130 127 124 117 101 109 126 138 122 123 124 109
360 69 75 281 262 255 11 74 69 22 77 104 100 130 168 109 124 133 134 128 133 137 135 140 133 130 132 132 136 138 137 137 138 146 151 151 150 148 144 144 144 143 135 138 126 125 132 140 132
59 53 64 222 300 294 37 96 77 41 46 64 104 40 34 134 130 137 134 134 138 130 129 136 133 133 135 134 141 142 140 141 147 149 150 156 161 165 171 166 161 161 158 159 135 125 133 137 139
40 75 132 320 326 249 71 101 97 78 55 66 98 20 96 87 121 135 136 139 131 128 131 135 135 136 137 138 142 141 140 142 143 153 156 167 171 180 184 179 173 166 163 151 153 145 142 143 144
73 75 44 278 231 310 286 130 100 104 146 121 61 134 9 126 137 136 126 123 128 130 135 139 138 140 141 145 143 146 141 146 147 152 157 155 160 160 184 178 174 158 169 172 171 179 159 161 181
147 141 157 295 304 285 56 18 76 84 59 18 107 337 197 147 136 122 120 122 126 129 135 139 140 147 144 140 144 147 144 155 154 151 146 154 158 165 175 177 174 179 177 187 198 208 229 214 227
113 119 150 222 264 255 137 97 119 113 87 108 239 202 173 147 132 116 124 124 129 130 143 146 146 140 140 147 148 148 154 162 157 158 153 159 166 169 172 179 190 196 195 207 219 245 276 283 266
149 113 173 198 243 233 191 98 63 98 109 85 101 14 133 124 133 111 106 114 118 144 150 151 155 157 158 149 158 154 160 169 168 165 161 163 170 192 185 193 201 206 217 228 235 250 262 301 333
106 118 241 7 63 354 87 88 295 45 43 13 44 277 167 141 118 130 131 133 144 152 157 154 154 164 166 162 153 157 166 173 174 164 163 182 207 205 197 202 195 210 226 239 245 248 261 309 253
164 164 22 341 20 304 124 80 93 47 44 258 176 190 164 151 135 138 142 147 160 159 154 158 163 164 166 141 165 168 167 186 196 177 175 195 228 218 198 180 203 194 231 238 239 240 296 41 340
251 160 80 277 321 299 56 134 142 120 232 253 210 176 160 145 149 150 152 145 164 166 174 157 158 163 165 158 181 175 174 188 181 175 180 191 216 226 197 182 214 189 230 326 288 16 22 307 274
298 51 359 304 294 340 102 152 157 203 197 170 216 157 162 154 162 163 158 153 161 172 177 164 164 164 159 177 188 158 155 144 179 192 202 183 209 218 222 198 201 167 119 100 80 50 330 267 231
293 12 284 275 282 331 63 153 123 235 215 168 222 163 161 159 165 161 157 160 163 168 161 165 172 172 153 148 167 153 149 175 180 203 209 220 187 301 256 285 251 110 184 69 86 101 315 294 297
323 294 270 250 188 230 24 218 216 186 196 184 208 172 161 160 163 171 158 159 162 168 172 171 172 166 152 151 158 158 182 164 167 180 226 206 166 324 256 291 294 111 160 106 115 160 189 258 268
290 258 269 206 173 173 159 289 200 174 177 185 81 314 159 167 166 167 161 163 170 168 171 161 167 166 161 156 163 171 158 182 169 184 177 187 160 280 283 314 325 192 106 145 164 181 232 244 321
267 247 148 224 170 186 182 251 292 178 195 139 160 193 156 170 161 166 168 160 167 165 160 162 159 167 163 162 159 172 150 164 188 174 184 193 212 230 268 299 345 356 153 177 126 179 172 199 222
291 350 145 40 233 194 103 16 292 227 187 155 173 190 154 167 170 165 167 166 170 165 165 171 157 168 160 156 149 168 153 197 179 180 169 188 209 243 199 74 5 40 346 71 206 265 293 161 192
277 331 5 295 273 268 170 240 257 266 249 165 175 165 161 161 164 168 169 170 172 164 171 175 158 168 160 158 151 148 185 165 192 211 155 183 204 234 203 150 154 285 249 24 331 297 27 347 89
307 351 311 296 293 346 332 276 262 260 257 185 179 166 168 160 155 169 176 170 171 172 175 180 166 163 164 170 162 146 169 161 182 170 182 189 203 222 188 196 181 71 43 37 3 47 351 327 7
303 244 246 252 287 355 337 304 286 260 227 207 181 174 172 160 164 169 172 178 173 175 178 171 170 167 163 162 145 138 125 82 144 166 191 194 214 214 196 218 210 87 94 311 300 19 17 338 337
285 294 323 349 22 276 279 292 285 272 261 174 173 177 176 163 166 167 171 175 172 178 177 173 170 171 169 155 161 161 170 163 191 188 190 194 197 208 214 190 200 224 159 345 347 42 57 51 10
244 318 310 317 321 335 288 323 270 299 151 178 186 188 176 164 166 170 178 167 170 171 175 169 164 168 166 171 162 170 182 182 184 199 194 197 205 198 203 202 199 195 194 205 123 52 327 105 74
324 341 303 299 209 332 264 188 284 191 159 170 193 200 181 162 168 170 171 170 165 169 171 172 171 174 171 172 172 174 178 190 201 195 200 205 195 203 204 210 197 196 207 208 154 175 210 233 264
291 315 322 335 3 223 275 58 226 152 170 174 187 201 199 158 162 163 166 174 160 171 173 175 177 179 173 179 182 179 187 200 204 200 190 175 176 204 223 212 201 192 213 228 156 167 218 222 217
257 190 167 279 271 270 304 310 292 276 179 165 185 194 184 151 162 167 169 175 171 170 176 176 178 179 181 180 183 182 188 199 209 210 179 185 198 190 196 210 203 189 198 235 218 193 216 213 225
261 258 233 254 283 345 248 309 12 353 95 155 341 92 186 152 165 167 170 175 174 167 171 171 177 180 180 183 178 182 190 197 196 191 187 194 187 200 187 204 179 228 211 212 233 223 227 228 230
184 238 0 338 267 274 343 99 210 288 9 354 359 327 173 142 165 166 171 175 177 173 174 173 174 178 180 181 183 185 191 194 202 186 201 197 194 202 170 199 187 223 211 198 215 232 270 254 258
19 304 303 182 164 197 296 288 250 62 14 9 345 334 264 151 156 167 172 176 177 174 173 177 174 176 179 182 182 188 188 196 201 197 194 193 196 194 174 195 201 204 194 190 195 202 218 242 243
19 15 39 289 325 275 213 255 31 32 17 4 324 327 317 177 155 164 168 171 175 175 179 181 177 178 180 181 184 189 188 191 197 206 188 189 194 193 191 177 193 195 188 200 197 198 218 213 238